St. Cloud, MN

1:14 PM CDT on July 26, 2017 (GMT -0500)
Saint Cloud Regional

Weather History for KSTC - October, 2011

Change the Weather History Date:

Sunday, October 16, 2011

  Actual Average Record
Temperature  
Mean Temperature 48 °F 46 °F  
Max Temperature 55 °F 57 °F 83 °F (1947)
Min Temperature 41 °F 35 °F 18 °F (1952)
Degree Days  
Heating Degree Days 17 19  
Month to date heating degree days 103 261  
Since 1 July heating degree days 329 547  
Cooling Degree Days 0 0  
Month to date cooling degree days 27 0  
Year to date cooling degree days 634 463  
Moisture  
Dew Point 34 °F    
Average Humidity 62    
Maximum Humidity 86    
Minimum Humidity 38    
Precipitation  
Precipitation 0.00 in 0.08 in 2.14 in (1968)
Month to date precipitation 1.34 1.47  
Year to date precipitation 27.36 24.51  
Snow  
Snow 0.00 in 0.00 in 0.30 in (1992)
Month to date snowfall 0.0 0.1  
Since 1 July snowfall 0.0 0.1  
Since 1 September snowfall 0.0 0.1  
Snow Depth 0.00 in    
Sea Level Pressure  
Sea Level Pressure 29.87 in    
Wind  
Wind Speed 16 mph (West)    
Max Wind Speed 31 mph    
Max Gust Speed 40 mph    
Visibility 10 miles    
Events      
T = Trace of Precipitation, MM = Missing Value Source: NWS Daily Summary

Daily Weather History Graph

Daily Weather History Graph

Search for Another Location

Airport or City:

Trip Planner

Search our weather history database for the weather conditions in past years. The results will help you decide how hot, cold, wet, or windy it might be!

Date:

Astronomy

Oct. 16, 2011 Rise Set
Actual Time 7:33 AM CDT 6:29 PM CDT
Civil Twilight 7:03 AM CDT 6:59 PM CDT
Nautical Twilight 6:29 AM CDT 7:33 PM CDT
Astronomical Twilight 5:54 AM CDT 8:07 PM CDT
Moon 9:02 PM CDT (10/16) 12:04 PM CDT (10/16)
Length of Visible Light 11h 55m
Length of Day
10h 55m
Waning Gibbous, 82% of the Moon is Illuminated
Oct 16
Waning Gibbous
Oct 19
Last Quarter
Oct 26
New
Nov 2
First Quarter
Nov 10
Full

Hourly Weather History & Observations

Time (CDT) Temp. Windchill Dew Point Humidity Pressure Visibility Wind Dir Wind Speed Gust Speed Precip Events Conditions
12:53 AM 48.9 °F - 39.0 °F 69% 29.86 in 10.0 mi West 8.1 mph - N/A   Overcast
1:53 AM 48.0 °F - 39.0 °F 71% 29.86 in 10.0 mi West 8.1 mph - N/A   Mostly Cloudy
2:53 AM 46.0 °F 42.5 °F 39.0 °F 76% 29.86 in 10.0 mi West 6.9 mph - N/A   Clear
3:53 AM 43.0 °F 39.5 °F 37.9 °F 82% 29.85 in 10.0 mi West 5.8 mph - N/A   Clear
4:53 AM 41.0 °F 36.4 °F 37.0 °F 86% 29.86 in 10.0 mi WSW 6.9 mph - N/A   Clear
5:53 AM 42.1 °F 36.6 °F 37.0 °F 82% 29.85 in 10.0 mi West 9.2 mph - N/A   Clear
6:53 AM 42.1 °F 35.7 °F 37.0 °F 82% 29.86 in 10.0 mi West 11.5 mph - N/A   Clear
7:53 AM 42.8 °F 36.2 °F 37.4 °F 81% 29.83 in 10.0 mi West 12.7 mph - N/A   Partly Cloudy
8:53 AM 43.0 °F 37.2 °F 37.0 °F 80% 29.88 in 10.0 mi West 10.4 mph - N/A   Scattered Clouds
9:53 AM 48.0 °F - 37.9 °F 68% 29.89 in 10.0 mi West 13.8 mph - N/A   Clear
10:53 AM 50.0 °F - 37.0 °F 61% 29.88 in 10.0 mi West 20.7 mph 27.6 mph N/A   Clear
11:53 AM 53.1 °F - 34.0 °F 48% 29.88 in 10.0 mi NW 23.0 mph 32.2 mph N/A   Partly Cloudy
12:53 PM 53.1 °F - 32.0 °F 45% 29.87 in 10.0 mi WNW 23.0 mph 33.4 mph N/A   Clear
1:53 PM 54.0 °F - 32.0 °F 43% 29.86 in 10.0 mi West 23.0 mph 31.1 mph N/A   Clear
2:53 PM 54.0 °F - 30.0 °F 40% 29.86 in 10.0 mi West 23.0 mph 33.4 mph N/A   Clear
3:53 PM 53.1 °F - 28.0 °F 38% 29.86 in 10.0 mi WNW 25.3 mph 39.1 mph N/A   Clear
4:53 PM 53.1 °F - 28.9 °F 40% 29.86 in 10.0 mi WNW 18.4 mph 31.1 mph N/A   Clear
5:53 PM 51.1 °F - 28.9 °F 43% 29.86 in 10.0 mi WNW 20.7 mph 38.0 mph N/A   Clear
6:53 PM 48.9 °F - 28.9 °F 46% 29.86 in 10.0 mi West 19.6 mph 27.6 mph N/A   Clear
7:53 PM 48.0 °F - 28.9 °F 48% 29.88 in 10.0 mi West 17.3 mph - N/A   Clear
8:53 PM 46.9 °F - 30.0 °F 52% 29.87 in 10.0 mi West 15.0 mph - N/A   Clear
9:53 PM 46.0 °F 39.9 °F 30.9 °F 56% 29.88 in 10.0 mi West 13.8 mph 23.0 mph N/A   Clear
10:53 PM 46.0 °F 39.3 °F 30.9 °F 56% 29.88 in 10.0 mi West 16.1 mph - N/A   Clear
11:53 PM 45.0 °F 37.9 °F 30.0 °F 56% 29.87 in 10.0 mi West 16.1 mph 21.9 mph N/A   Clear